Location: Skalnate Pleso
(49.1889°N, 20.2450°E)
Time: 11:04:10
(UTC+01:00)

Okean 3 Rocket - Pass Details

Date: 19 November 2019
Orbit: 614 x 646 km, 82.5° (Epoch: 14 December)

Event Time Altitude Azimuth Distance (km) Brightness Sun altitude
Rises 05:08:47 0° 212° (SSW) 2,938 6.8 -17.0°
Reaches altitude 10° 05:11:12 10° 221° (SW) 2,029 5.9 -16.6°
Maximum altitude 05:15:20 35° 287° (WNW) 1,034 4.1 -16.0°
Drops below altitude 10° 05:19:28 10° 354° (N) 2,026 6.0 -15.3°
Sets 05:21:52 0° 4° (N) 2,933 6.9 -14.9°
